C/2016 N6 ( PanSTARRS )

Japanese version
Home page
Updated on November 9, 2019

---------------------------------------------------------------------

* Profile

Discovery Date July 14, 2016
Magnitude 20.7 mag
Discoverer Pan-STARRS 1 telescope (Haleakala)

* Pictures

* Orbital Elements

Epoch 2018 July 21.0 TT = JDT 2458320.5
T 2018 July 18.21072 TT                                 Williams
q   2.6690701            (2000.0)            P               Q
z  +0.0004678      Peri.  162.80588     -0.53335013     +0.08479687
 +/-0.0000001      Node   298.97626     +0.61778904     +0.71869308
e   0.9987514      Incl.  105.83230     +0.57781861     -0.69013749
From 2981 observations 2016 June 27-2019 Oct. 15, mean residual 0".4.

* Finding Charts

* Magnitudes Graph

        m1 = 3.5 + 5 log d + 14.0 log r

---------------------------------------------------------------------

The orbital elements are published on M.P.E.C. 2019-V116.
The charts are made with StellaNavigator Ver.10 (AstroArts).
The magnitudes graphs are made with Comet for Windows.

---------------------------------------------------------------------

Copyright(C) Seiichi Yoshida (comet@aerith.net). All rights reserved.